Location: *
(35.8942°N, 23.3025°E)
Time: 14:12:52
(UTC+00:00)

Gurwin Techsat 1B - Visible Passes

Search period start: 01 April 2023 00:00
Search period end: 11 April 2023 00:00
Orbit: 811 x 813 km, 98.9° (Epoch: 31 March)

Date Brightness Start Highest point End Pass type
(mag) Time Alt. Az. Time Alt. Az. Time Alt. Az.
01 Apr 11.0 00:26:02 10° NE 00:27:54 18° ENE 00:27:54 18° ENE visible
01 Apr 9.6 02:05:29 10° N 02:09:05 31° NW 02:09:05 31° NW visible
02 Apr 11.4 00:04:13 10° ENE 00:04:42 11° ENE 00:04:42 11° ENE visible
02 Apr 9.3 01:42:09 10° N 01:45:54 43° NNW 01:45:54 43° NNW visible
03 Apr 9.5 01:19:03 10° NNE 01:22:43 46° NNE 01:22:43 46° NNE visible
03 Apr 10.6 03:02:00 10° NW 03:03:31 11° WNW 03:03:55 11° WNW visible
04 Apr 10.0 00:56:10 10° NNE 00:59:32 35° NE 00:59:32 35° NE visible
04 Apr 10.1 02:37:12 10° NNW 02:40:44 19° WNW 02:40:44 19° WNW visible
05 Apr 10.6 00:33:36 10° NE 00:36:20 24° ENE 00:36:20 24° ENE visible
05 Apr 9.6 02:13:26 10° N 02:17:32 30° WNW 02:17:32 30° WNW visible
06 Apr 11.1 00:11:30 10° NE 00:13:09 15° ENE 00:13:09 15° ENE visible
06 Apr 9.1 01:50:01 10° N 01:54:21 46° NW 01:54:21 46° NW visible
07 Apr 8.9 01:26:50 10° NNE 01:31:09 59° N 01:31:09 59° N visible
08 Apr 9.5 01:03:54 10° NNE 01:07:57 47° NE 01:07:57 47° NE visible
08 Apr 10.2 02:45:23 10° NNW 02:48:30 16° WNW 02:49:09 16° WNW visible
09 Apr 10.2 00:41:12 10° NNE 00:44:45 31° ENE 00:44:45 31° ENE visible
09 Apr 9.7 02:21:25 10° NNW 02:25:44 26° WNW 02:25:57 26° WNW visible
10 Apr 10.8 00:18:55 10° NE 00:21:33 19° ENE 00:21:33 19° ENE visible
10 Apr 9.1 01:57:54 10° N 02:02:45 42° WNW 02:02:45 42° WNW visible
